Regional Weather Roundup
Issued by NWS

Home | Current Version | Previous Version | Text Only | Print | Product List | Glossary On
Versions: 1 2 3 4 5 6 7 8 9 10 11 12 13 14 15 16 17 18 19 20 21 22 23 24 25 26 27 28 29 30 31 32 33 34 35 36 37 38 39 40 41 42 43 44 45 46 47 48 49 50
000
ASUS43 KMKX 291559
RWRWI

WISCONSIN REGIONAL WEATHER ROUNDUP
NATIONAL WEATHER SERVICE MILWAUKEE/SULLIVAN WI
1100 AM CDT SUN MAR 29 2015

NOTE: "FAIR" INDICATES FEW OR NO CLOUDS BELOW 12,000 FEET WITH NO
SIGNIFICANT WEATHER AND/OR OBSTRUCTIONS TO VISIBILITY.

WIZ001-002-006>008-014>016-023>028-291700-
NORTHWEST WISCONSIN

CITY           SKY/WX    TMP DP  RH WIND       PRES   REMARKS
SUPERIOR ARPT  CLOUDY    36  33  87 SW12      29.50R WCI  28
ASHLAND        CLOUDY    36  30  79 SW13      29.50F WCI  27
HAYWARD        LGT SNOW  33  30  88 S15       29.51F FOG     WCI  23
SIREN          CLOUDY    36  34  93 SW10      29.52S WCI  28
CUMBERLAND     LGT RAIN  32  32 100 S9        29.53F WCI  24
RICE LAKE      MIX PCPN  34  32  92 S9        29.57F WCI  26
CHETEK         CLOUDY    33  32  95 SE13      29.56F WCI  24
LADYSMITH      CLOUDY    33  31  92 S12G17    29.59F WCI  24
EAU CLAIRE     CLOUDY    35  32  88 S13       29.59F WCI  26
MENOMONIE      DRIZZLE   36  34  93 S17       29.59F WCI  26
NEW RICHMOND   CLOUDY    37  36  94 SW15G24   29.54F WCI  28
OSCEOLA        CLOUDY    38  36  92 S10       29.56F WCI  31
$$

WIZ003>005-009-010-017-018-291700-
NORTH CENTRAL WISCONSIN

CITY           SKY/WX    TMP DP  RH WIND       PRES   REMARKS
MANITOWISH WTR CLOUDY    31  28  92 S13G23    29.54F WCI  21
ARBOR VITAE    CLOUDY    32  28  87 S15G26    29.56F WCI  21
WOODRUFF       CLOUDY    32  28  87 S15G26    29.56F WCI  21
RHINELANDER    CLOUDY    30  26  85 S16G29    29.59F FOG     WCI  19
EAGLE RIVER    MIX PCPN  29  25  84 S13G24    29.57F WCI  19
LAND O LAKES   MIX PCPN  31  27  84 S13G20    29.55F WCI  21
PHILLIPS       CLOUDY    31  28  89 S16G22    29.56F WCI  20
TOMAHAWK       CLOUDY    30  27  89 S6        29.61F FOG     WCI  24
MEDFORD        CLOUDY    31  28  91 S13G20    29.61F WCI  21
MERRILL        MIX PCPN  30  29  94 S12       29.64F WCI  21
$$

WIZ029-030-035-036-043>047-291700-
CENTRAL WISCONSIN

CITY           SKY/WX    TMP DP  RH WIND       PRES   REMARKS
WAUSAU         LGT SNOW  31  29  92 S16G24    29.64F FOG     WCI  20
MOSINEE        FRZ DRZL  30  30 100 S14G22    29.67F WCI  20
MARSHFIELD     CLOUDY    33  29  85 S15       29.65F WCI  23
STEVENS POINT  MIX PCPN  30  28  91 S12G17    29.70F WCI  20
WAUPACA        CLOUDY    33  28  81 S12G22    29.74F WCI  25
WAUTOMA        CLOUDY    32  30  93 S13G20    29.75F WCI  22
WISC RAPIDS    CLOUDY    33  28  81 S17       29.70F WCI  22
CAMP DOUGLAS   CLOUDY    32  32 100 S18G24    29.71F WCI  20
$$

WIZ011>013-019>022-031-037>040-048>050-291700-
NORTHEAST WISCONSIN

CITY           SKY/WX    TMP DP  RH WIND       PRES   REMARKS
ANTIGO         CLOUDY    29  27  94 S14G22    29.66F FOG     WCI  18
SHAWANO        LGT RAIN  33  29  83 S12G18    29.72F WCI  25
OCONTO         CLOUDY    34  26  74 S12       29.76F WCI  25
STURGEON BAY   CLOUDY    34  23  64 S21G28    29.79S WCI  22
GREEN BAY      LGT RAIN  34  28  79 S17G29    29.74F WCI  23
MANITOWOC      NOT AVBL
APPLETON       LGT RAIN  32  27  80 S17G24    29.73F WCI  21
CLINTONVILLE   MIX PCPN  32  28  86 S12G20    29.73F WCI  23
OSHKOSH        MIX PCPN  32  27  81 S31G39    29.73F WCI  17
$$

WIZ032>034-041-042-053>061-291700-
SOUTHWEST WISCONSIN

CITY           SKY/WX    TMP DP  RH WIND       PRES   REMARKS
LA CROSSE      CLOUDY    37  32  82 S22G29    29.69F WCI  26
SPARTA         CLOUDY    35  31  85 SW9G23    29.72F WCI  28
VIROQUA        CLOUDY    33  32  96 S16G24    29.73F WCI  23
BOSCOBEL       CLOUDY    36  30  79 SW16G26   29.80F WCI  26
PRAIRIE DU CHI CLOUDY    36  29  78 S8G20     29.80F WCI  29
PLATTEVILLE    CLOUDY    33  31  91 S12       29.83F WCI  24
$$

WIZ056-057-062-063-064-067-068-291700-
SOUTH CENTRAL WISCONSIN

CITY           SKY/WX    TMP DP  RH WIND       PRES   REMARKS
REEDSBURG      CLOUDY    32  30  92 S13G21    29.77F WCI  23
BARABOO/DELLS  CLOUDY    32  29  88 SW15      29.76F WCI  22
LONE ROCK      NOT AVBL
MINERAL POINT  CLOUDY    34  32  93 S15       29.81F WCI  24
MADISON        DRIZZLE   33  29  85 S17G30    29.82F FOG     WCI  22
MIDDLETON      CLOUDY    34  30  86 SW14      29.82F WCI  24
WATERTOWN      MIX PCPN  32  28  86 S14G22    29.84F WCI  22
MONROE         MIX PCPN  32  30  93 S31G41    29.83F WCI  17
JANESVILLE     CLOUDY    34  28  80 S23G29    29.89F WCI  22
$$

WIZ051-052-058>065-066-070>072-291700-
SOUTHEAST WISCONSIN

CITY           SKY/WX    TMP DP  RH WIND       PRES   REMARKS
MILWAUKEE      LGTSLEET  36  22  56 S23G32    29.90F WCI  24
WAUKESHA       LGT RAIN  34  23  64 S17G29    29.88F WCI  23
MILWAUKEE/TIMM LGT RAIN  36  19  51 S17G28    29.90F WCI  25
RACINE         LGT RAIN  38  20  48 S23G33    29.93F WCI  27
BURLINGTON     LGT SNOW  32  24  70 S21G32    29.91F WCI  20
KENOSHA        LGT RAIN  37  22  54 S24G31    29.92F WCI  26
FOND DU LAC    LGT SNOW  33  27  78 S28G39    29.76F WCI  20
SHEBOYGAN      LGT RAIN  34  25  69 S21G28    29.83F WCI  22
WEST BEND      LGT RAIN  34  25  69 S16G28    29.85F WCI  23
JUNEAU         MIX PCPN  32  27  81 S14       29.83F WCI  22
$$

LSZ147-162-291700-
LAKE SUPERIOR

STATION/POSITION TIME  TEMP    WIND        PRES    WAVE
                       AIR SEA DIR/SP/G            HT/PER
                 (UTC) (F)     (DEG/KT/KT) (MB)    (FT/S)
DEVILS ISLAND    1500   35     210/ 10/ 14  999.5F
PORT WING        1500   37     200/ 12/ 18  999.3F
SAXON HARBOR     1500   37     200/ 12/ 22 1000.0F
$$

LMZ867-665-643>646-291700-
LAKE MICHIGAN

STATION/POSITION TIME  TEMP    WIND        PRES    WAVE
                       AIR SEA DIR/SP/G            HT/PER
                 (UTC) (F)     (DEG/KT/KT) (MB)    (FT/S)
NORTHPORT PIER   1520   34     160/ 12     1007.8F
SISTER BAY       1517   36     180/ 30/ 43   N/A
KEWAUNEE LAKESHO 1500   35     180/ 29/ 34 1009.5F
SHEBOYGAN LAKESH 1500   35     180/ 29/ 33 1012.3F
PORT WASHINGTON  1521   38     190/ 15     1012.9F
MILWAUKEE LAKESH 1500   37     190/ 22/ 27   N/A
KENOSHA   LAKESH 1500   37     190/ 19/ 27 1014.9F
$$

TC  - TEMPERATURE IN CELSIUS
VSB - VISIBILITY IN STATUTE MILES
WCI - WIND CHILL INDEX
HX  - HEAT INDEX




USA.gov is the U.S. government's official web portal to all federal, state and local government web resources and services.